Portada
METAR-TAF:

METAR-TAF

Aeroports :

Lewis University Airport

Romeoville, Illinois, Estats Units d'Amèrica

latitud: 41-36-30N, longitud: 088-05-39W, altitud: 205 m

Observació

L'informe es va fer fa 32 minuts, a les 10:30 UTC
Vent 7 kt del Nord-Est
Temperatura 0°C
Humitat 100%
Pressió 1021 hPa
Visibilitat: 0.4 km
Cel cobert a una alçada de 200 ft
boira

METAR: KLOT 151030Z AUTO 05007KT 1/4SM FG OVC002 00/00 A3014 RMK AO2 T00000000

Hora: 05:02 (11:02 UTC)


TAF: manca

Observacions i pronòstics meteorològics de més de 4000 aeroports (METAR i TAF).

Les estacions disponibles són els punts grocs i vermells al mapa.

Posi el ratolí al punt desitjat per veure el nom de l'estació.

Feu clic per veure les observacions i els pronòstics meteorològics.

Per canviar el mapa: feu clic els botons verds amb una creu de color negre per apropar; al botó verd amb un guió per allunyar la imatge; o en les fletxes verdes per a mapes adjacents.


METAR-TAF: